WST2203 MYEH-MYNN

Flight info

Callsign WST2203
Flight time 0h 17m
Altitude 12000
Route LAPSE
Aircraft E145/M-SABDFGRW/S

Departure

Time 2026-05-04 00:43
Airport North Eleuthera Airport (MYEH)

Arrival

Time 2026-05-04 01:00
Airport Lynden Pindling International Airport (MYNN)
Time Latitude Longitude Altitude Speed Heading
2026-05-04 00:41 25.47569 -76.68164 20 ft 8 kts 209°
2026-05-04 00:41 25.47515 -76.68256 21 ft 20 kts 251°
2026-05-04 00:41 25.47455 -76.68443 23 ft 30 kts 247°
2026-05-04 00:41 25.47370 -76.68670 24 ft 32 kts 247°
2026-05-04 00:42 25.47298 -76.68865 20 ft 20 kts 247°
2026-05-04 00:42 25.47282 -76.68967 18 ft 6 kts 255°
2026-05-04 00:42 25.47265 -76.68962 18 ft 4 kts 111°
2026-05-04 00:42 25.47277 -76.68916 19 ft 4 kts 67°
2026-05-04 00:43 25.47313 -76.68820 21 ft 41 kts 68°
2026-05-04 00:43 25.47524 -76.68240 21 ft 116 kts 68°
2026-05-04 00:43 25.47886 -76.67253 159 ft 153 kts 68°
2026-05-04 00:43 25.48320 -76.66134 768 ft 165 kts 66°
2026-05-04 00:44 25.48806 -76.64925 1161 ft 198 kts 62°
2026-05-04 00:44 25.49950 -76.63786 1371 ft 244 kts 23°
2026-05-04 00:44 25.51642 -76.63626 2281 ft 255 kts 347°
2026-05-04 00:44 25.53184 -76.64550 3329 ft 258 kts 314°
2026-05-04 00:45 25.54015 -76.66229 4404 ft 255 kts 281°
2026-05-04 00:45 25.53915 -76.68134 5395 ft 255 kts 253°
2026-05-04 00:45 25.53322 -76.69990 5931 ft 260 kts 250°
2026-05-04 00:45 25.52694 -76.71905 5962 ft 263 kts 250°
2026-05-04 00:46 25.52074 -76.73796 5967 ft 265 kts 250°
2026-05-04 00:46 25.51394 -76.75704 5968 ft 266 kts 248°
2026-05-04 00:46 25.50692 -76.77610 5964 ft 266 kts 248°
2026-05-04 00:46 25.49997 -76.79497 5967 ft 265 kts 248°
2026-05-04 00:47 25.49307 -76.81374 5964 ft 265 kts 248°
2026-05-04 00:47 25.48605 -76.83281 5964 ft 265 kts 248°
2026-05-04 00:47 25.47916 -76.85152 5964 ft 265 kts 248°
2026-05-04 00:47 25.47218 -76.87050 5964 ft 264 kts 248°
2026-05-04 00:48 25.46526 -76.88927 5964 ft 264 kts 248°
2026-05-04 00:48 25.45835 -76.90801 5964 ft 263 kts 248°
2026-05-04 00:48 25.45147 -76.92667 5964 ft 263 kts 248°
2026-05-04 00:48 25.44458 -76.94534 5963 ft 262 kts 248°
2026-05-04 00:49 25.43768 -76.96402 5963 ft 262 kts 248°
2026-05-04 00:49 25.43077 -76.98273 5964 ft 261 kts 248°
2026-05-04 00:49 25.42388 -77.00137 5964 ft 261 kts 248°
2026-05-04 00:49 25.41711 -77.01968 5961 ft 261 kts 248°
2026-05-04 00:50 25.41020 -77.03837 5962 ft 260 kts 248°
2026-05-04 00:50 25.40337 -77.05683 5963 ft 260 kts 248°
2026-05-04 00:50 25.39654 -77.07527 5962 ft 260 kts 248°
2026-05-04 00:50 25.38970 -77.09375 5959 ft 260 kts 248°
2026-05-04 00:51 25.38282 -77.11231 5959 ft 260 kts 248°
2026-05-04 00:51 25.37600 -77.13074 5963 ft 260 kts 248°
2026-05-04 00:51 25.36913 -77.14924 5962 ft 260 kts 248°
2026-05-04 00:51 25.35991 -77.16628 5956 ft 260 kts 225°
2026-05-04 00:52 25.34605 -77.17934 5965 ft 259 kts 227°
2026-05-04 00:52 25.33427 -77.19409 5962 ft 258 kts 234°
2026-05-04 00:52 25.32386 -77.21047 5963 ft 258 kts 236°
2026-05-04 00:52 25.31363 -77.22674 5960 ft 258 kts 236°
2026-05-04 00:53 25.30336 -77.24307 5854 ft 258 kts 236°
2026-05-04 00:53 25.29319 -77.25932 5497 ft 260 kts 236°
2026-05-04 00:53 25.28291 -77.27577 5130 ft 259 kts 236°
2026-05-04 00:53 25.27271 -77.29219 4760 ft 257 kts 236°
2026-05-04 00:54 25.26281 -77.30828 4403 ft 255 kts 236°
2026-05-04 00:54 25.25281 -77.32465 4034 ft 254 kts 237°
2026-05-04 00:54 25.24309 -77.34069 3668 ft 253 kts 236°
2026-05-04 00:54 25.23334 -77.35695 3316 ft 252 kts 236°
2026-05-04 00:55 25.22379 -77.37303 2954 ft 252 kts 236°
2026-05-04 00:55 25.21433 -77.38908 2655 ft 249 kts 236°
2026-05-04 00:55 25.20493 -77.40517 2414 ft 249 kts 237°
2026-05-04 00:55 25.19553 -77.42127 2175 ft 249 kts 237°
2026-05-04 00:56 25.18611 -77.43744 2008 ft 246 kts 237°
2026-05-04 00:56 25.17695 -77.45315 1885 ft 244 kts 237°
2026-05-04 00:56 25.16798 -77.46859 1828 ft 232 kts 237°
2026-05-04 00:56 25.15950 -77.48321 1697 ft 223 kts 237°
2026-05-04 00:57 25.15135 -77.49726 1659 ft 210 kts 237°
2026-05-04 00:57 25.14395 -77.51013 1700 ft 184 kts 237°
2026-05-04 00:57 25.13627 -77.52093 1634 ft 174 kts 214°
2026-05-04 00:57 25.12610 -77.52718 1668 ft 157 kts 208°
2026-05-04 00:58 25.11712 -77.53196 1612 ft 132 kts 188°
2026-05-04 00:58 25.10848 -77.53067 1488 ft 130 kts 159°
2026-05-04 00:58 25.09947 -77.52696 1406 ft 141 kts 150°
2026-05-04 00:58 25.09185 -77.52042 1268 ft 136 kts 136°
2026-05-04 00:59 25.08519 -77.51347 970 ft 129 kts 132°
2026-05-04 00:59 25.07893 -77.50609 706 ft 134 kts 130°
2026-05-04 00:59 25.07253 -77.49865 572 ft 135 kts 133°
2026-05-04 00:59 25.06582 -77.49118 418 ft 136 kts 133°
2026-05-04 01:00 25.05918 -77.48390 238 ft 135 kts 133°
2026-05-04 01:00 25.05260 -77.47650 53 ft 132 kts 133°
2026-05-04 01:00 25.04666 -77.46994 7 ft 102 kts 134°
2026-05-04 01:00 25.04465 -77.46740 7 ft 17 kts 78°
2026-05-04 01:01 25.04545 -77.46638 7 ft 11 kts 33°
2026-05-04 01:01 25.04610 -77.46674 7 ft 12 kts 310°
2026-05-04 01:01 25.04677 -77.46739 7 ft 12 kts 336°
2026-05-04 01:01 25.04750 -77.46693 7 ft 13 kts 44°
2026-05-04 01:02 25.04821 -77.46619 7 ft 9 kts 43°
2026-05-04 01:02 25.04854 -77.46605 7 ft 0 kts